Time,TemperatureF,DewpointF,PressureIn,WindDirection,WindDirectionDegrees,WindSpeedMPH,WindSpeedGustMPH,Humidity,HourlyPrecipIn,Conditions,Clouds,dailyrainin,SoftwareType,DateUTC
2013-08-12 00:00:00,55.0,45.0,-100.00,North,-999,-999.0,-999.0,67,-99.99,,,0.01,,2013-08-12 07:00:00,
2013-08-12 01:00:00,55.0,44.0,-100.00,ESE,104,1.0,2.0,67,-99.99,,,0.01,,2013-08-12 08:00:00,
2013-08-12 01:53:00,55.0,44.0,-100.00,ESE,104,1.0,2.0,67,-99.99,,,0.01,,2013-08-12 08:53:00,
2013-08-12 02:00:00,54.0,44.0,-100.00,SSE,167,2.0,4.0,68,-99.99,,,0.01,,2013-08-12 09:00:00,
2013-08-12 03:00:00,55.0,44.0,-100.00,South,178,3.0,4.0,68,-99.99,,,0.01,,2013-08-12 10:00:00,
2013-08-12 03:52:00,55.0,44.0,-100.00,South,178,3.0,4.0,68,-99.99,,,0.01,,2013-08-12 10:52:00,
2013-08-12 10:00:00,63.0,40.0,-100.00,ENE,64,2.0,5.0,42,-99.99,,,0.00,,2013-08-12 17:00:00,
2013-08-12 11:00:00,64.0,41.0,-100.00,South,171,3.0,5.0,44,-99.99,,,0.00,,2013-08-12 18:00:00,
2013-08-12 11:52:00,64.0,41.0,-100.00,South,171,3.0,5.0,44,-99.99,,,0.00,,2013-08-12 18:52:00,
2013-08-12 12:00:00,65.0,44.0,-100.00,ESE,104,3.0,6.0,45,-99.99,,,0.01,,2013-08-12 19:00:00,
2013-08-12 13:00:00,67.0,43.0,-100.00,ESE,114,3.0,5.0,42,-99.99,,,0.00,,2013-08-12 20:00:00,
2013-08-12 13:42:00,67.0,43.0,-100.00,ESE,114,3.0,5.0,42,-99.99,,,0.00,,2013-08-12 20:42:00,
2013-08-12 13:52:00,67.0,43.0,-100.00,ESE,114,3.0,5.0,42,-99.99,,,0.00,,2013-08-12 20:52:00,
2013-08-12 14:00:00,66.0,41.0,-100.00,NNE,15,3.0,7.0,40,-99.99,,,0.00,,2013-08-12 21:00:00,
2013-08-12 14:52:00,66.0,41.0,-100.00,NNE,15,3.0,7.0,40,-99.99,,,0.00,,2013-08-12 21:52:00,
2013-08-12 15:00:00,67.0,40.0,-100.00,SSE,160,3.0,7.0,37,-99.99,,,0.00,,2013-08-12 22:00:00,
2013-08-12 16:00:00,68.0,34.0,-100.00,South,169,3.0,7.0,28,-99.99,,,0.00,,2013-08-12 23:00:00,
2013-08-12 16:53:00,68.0,34.0,-100.00,South,169,3.0,7.0,28,-99.99,,,0.00,,2013-08-12 23:53:00,
2013-08-12 17:00:00,70.0,34.0,-100.00,East,81,2.0,5.0,27,-99.99,,,-99.99,,2013-08-13 00:00:00,
2013-08-12 17:53:00,70.0,34.0,-100.00,East,81,2.0,5.0,27,-99.99,,,-99.99,,2013-08-13 00:53:00,
2013-08-12 19:00:00,64.0,33.0,-100.00,SE,146,1.0,3.0,31,-99.99,,,-99.99,,2013-08-13 02:00:00,
2013-08-12 19:52:00,64.0,33.0,-100.00,SE,146,1.0,3.0,31,-99.99,,,-99.99,,2013-08-13 02:52:00,
2013-08-12 20:00:00,61.0,36.0,-100.00,SSE,154,2.0,3.0,40,-99.99,,,-99.99,,2013-08-13 03:00:00,
2013-08-12 20:54:00,61.0,36.0,-100.00,SSE,154,2.0,3.0,40,-99.99,,,-99.99,,2013-08-13 03:54:00,
2013-08-12 21:00:00,60.0,38.0,-100.00,South,175,2.0,3.0,44,-99.99,,,-99.99,,2013-08-13 04:00:00,
2013-08-12 21:53:00,60.0,38.0,-100.00,South,175,2.0,3.0,44,-99.99,,,-99.99,,2013-08-13 04:53:00,
2013-08-12 22:00:00,59.0,38.0,-100.00,South,191,2.0,3.0,46,-99.99,,,0.00,,2013-08-13 05:00:00,
2013-08-12 22:52:00,59.0,38.0,-100.00,South,191,2.0,3.0,46,-99.99,,,0.00,,2013-08-13 05:52:00,
2013-08-12 23:00:00,59.0,40.0,-100.00,ESE,122,2.0,3.0,49,-99.99,,,-99.99,,2013-08-13 06:00:00,
2013-08-12 23:52:00,59.0,40.0,-100.00,ESE,122,2.0,3.0,49,-99.99,,,-99.99,,2013-08-13 06:52:00,